Flag for Hong Kong Weather past 2 weeks in Hong Kong, Hong Kong

Now
91 °F

Scattered clouds.


Feels Like: 103 °F
Forecast: 81 / 83 °F
Wind: 15 mph from Northeast

Location: National Airport

Current Time: Sep 15, 2014 at 10:53:13 AM

Latest Report: Sep 15, 2014 at 10:30 AM


Visibility: N/A

Pressure: 29.62 "Hg

Humidity: 59%

Dew point: 75 °F

Location of Hong KongLocation

Historic Weather in Hong Kong — Graph

°F

Hong Kong temperature yesterday

Maximum temperature yesterday: 93 °F (at 11:30 AM)
Minimum temperature yesterday: 82 °F (at 6:00 AM)
Average temperature yesterday: 87 °F

Past Weeks' High & Low Weather Summary

 TemperatureHumidityPressure
High95 °F (Sep 3, 2:00 PM)94% (Sep 12, 5:30 AM)29.92 "Hg (Sep 12, 5:30 AM)
Low79 °F (Sep 12, 5:30 AM)47% (Sep 3, 2:00 PM)29.62 "Hg (Sep 15, 3:00 AM)
Average87 °F72%29.75 "Hg
* Reported Aug 31 10:00 AM — Sep 15 10:00 AM, Hong Kong, Weather by CustomWeather, © 2014

Note: Actual official high and low records may vary slightly from our data, if they occured in-between our weather recording intervals... More about our weather records

Advertising

Hong Kong weather history for previous 24 hours

 ConditionsComfort  
Time TempWeatherWind HumidityBarometerVisibility
10:00 AM
Sep 15
91 °FPassing clouds.10 mph63%29.62 "HgN/A
9:30 AM90 °FPassing clouds.10 mph67%29.62 "HgN/A
9:00 AM88 °FPassing clouds.10 mph70%29.65 "HgN/A
8:30 AM88 °FPassing clouds.15 mph70%29.65 "HgN/A
8:00 AM86 °FPassing clouds.13 mph75%29.65 "HgN/A
7:30 AM86 °FPassing clouds.10 mph75%29.62 "HgN/A
7:00 AM86 °FPassing clouds.1 mph75%29.62 "HgN/A
6:30 AM84 °FPassing clouds.2 mph79%29.62 "HgN/A
6:00 AM84 °FPassing clouds.3 mph79%29.62 "HgN/A
5:30 AM84 °FPassing clouds.2 mph79%29.62 "HgN/A
5:00 AM84 °FPassing clouds.5 mph79%29.62 "HgN/A
4:30 AM84 °FPassing clouds.3 mph79%29.62 "HgN/A
4:00 AM84 °FPassing clouds.2 mph79%29.62 "HgN/A
3:30 AM84 °FPassing clouds.3 mph79%29.62 "HgN/A
3:00 AM86 °FPassing clouds.2 mph75%29.62 "HgN/A
2:30 AM86 °FPassing clouds.6 mph75%29.65 "HgN/A
2:00 AM86 °FPassing clouds.6 mph79%29.65 "HgN/A
1:30 AM86 °FPassing clouds.7 mph75%29.65 "HgN/A
1:00 AM86 °FPassing clouds.7 mph79%29.65 "HgN/A
12:30 AM86 °FPassing clouds.7 mph75%29.68 "HgN/A
12:00 AM88 °FPassing clouds.6 mph66%29.68 "HgN/A
11:30 PM
Sep 14
86 °FPassing clouds.6 mph70%29.68 "HgN/A
11:00 PM86 °FPassing clouds.6 mph70%29.71 "HgN/A
10:30 PM88 °FPassing clouds.8 mph66%29.71 "HgN/A
10:00 PM88 °FPassing clouds.10 mph66%29.71 "HgN/A
9:30 PM88 °FPassing clouds.10 mph66%29.71 "HgN/A
9:00 PM86 °FPassing clouds.3 mph75%29.71 "HgN/A
8:30 PM86 °FPassing clouds.5 mph75%29.68 "HgN/A
8:00 PM86 °FPassing clouds.7 mph79%29.68 "HgN/A
7:30 PM88 °FPassing clouds.5 mph70%29.68 "HgN/A
7:00 PM86 °FPassing clouds.5 mph75%29.68 "HgN/A
6:30 PM84 °FPassing clouds.6 mph79%29.68 "HgN/A
6:00 PM84 °FScattered clouds.5 mph79%29.68 "HgN/A
5:30 PM84 °FThundershowers. Scattered clouds.16 mph79%29.68 "Hg3 mi
5:00 PM90 °FThunderstorms. Scattered clouds.7 mph71%29.68 "HgN/A
4:30 PM91 °FPassing clouds.6 mph67%29.68 "HgN/A
4:00 PM91 °FPassing clouds.8 mph63%29.68 "HgN/A
3:30 PM93 °FPassing clouds.9 mph63%29.68 "HgN/A
3:00 PM91 °FScattered clouds.9 mph63%29.68 "HgN/A
2:30 PM90 °FPassing clouds.9 mph71%29.68 "HgN/A
2:00 PM88 °FScattered clouds.10 mph79%29.68 "HgN/A
1:30 PM90 °FScattered clouds.8 mph71%29.71 "HgN/A
1:00 PM90 °FScattered clouds.9 mph71%29.71 "HgN/A
12:30 PM90 °FScattered clouds.12 mph71%29.71 "HgN/A
12:00 PM91 °FScattered clouds.9 mph67%29.71 "HgN/A
11:30 AM93 °FScattered clouds.8 mph59%29.74 "HgN/A
11:00 AM91 °FScattered showers. Scattered clouds.9 mph63%29.74 "HgN/A
10:30 AM91 °FScattered clouds.8 mph63%29.74 "HgN/A
10:00 AM90 °FPassing clouds.8 mph67%29.74 "HgN/A
Weather by CustomWeather, © 2014

See weather overviewHow to use our weather pages